Weather History for Nassau, Bahamas

Change the Weather History Date:

Wednesday, January 8, 2014

  Actual Average Record
Temperature  
Mean Temperature 71 °F -  
Max Temperature 78 °F 77 °F 84 °F (2007)
Min Temperature 64 °F 62 °F 55 °F (1997)
Cooling Degree Days 6    
Growing Degree Days 21 (Base 50)    
Moisture  
Dew Point 69 °F    
Average Humidity 86    
Maximum Humidity 94    
Minimum Humidity 78    
Precipitation  
Precipitation 0.03 in 0.06 in - ()
Sea Level Pressure  
Sea Level Pressure 30.19 in    
Wind  
Wind Speed 13 mph ()    
Max Wind Speed 18 mph    
Max Gust Speed -    
Visibility 6.5 miles    
Events Rain    
Averages and records for this station are not official NWS values.
T = Trace of Precipitation, MM = Missing Value Source: Averaged Metar Reports

Daily Weather History Graph

Daily Weather History Graph

Search for Another Location

Airport:

Trip Planner

Search our weather history database for the weather conditions in past years. The results will help you decide how hot, cold, wet, or windy it might be!

Date:

Astronomy

Jan. 08, 2014 Rise Set
Actual Time 6:56 AM EST 5:36 PM EST
Civil Twilight 6:31 AM EST 6:01 PM EST
Nautical Twilight 6:03 AM EST 6:29 PM EST
Astronomical Twilight 5:35 AM EST 6:57 PM EST
Moon 12:09 PM EST (1/8) 12:21 AM EST (1/8)
Length of Visible Light 11h 30m
Length of Day
10h 40m
First Quarter, 56% of the Moon is Illuminated
Jan 8
First Quarter
Jan 15
Full
Jan 24
Last Quarter
Jan 30
New
Feb 6
First Quarter

Hourly Weather History & Observations

Time (EST) Temp. Dew Point Humidity Pressure Visibility Wind Dir Wind Speed Gust Speed Precip Events Conditions
12:00 AM 69.8 °F 66.2 °F 88% 30.20 in 5.6 mi ENE 18.4 mph - N/A Rain Light Rain
1:00 AM 70 °F 67 °F 85% 30.20 in 7 mi ENE 16.1 mph - - Rain Light Rain
1:00 AM 69.8 °F 66.2 °F 88% 30.20 in 6.2 mi ENE 16.1 mph - N/A   Overcast
2:00 AM 69.8 °F 64.4 °F 83% 30.19 in 6.2 mi East 16.1 mph - N/A   Overcast
3:00 AM 69.8 °F 64.4 °F 83% 30.19 in 5.6 mi ENE 13.8 mph - N/A Rain Light Rain Showers
4:00 AM 67 °F 65 °F 93% 30.19 in 6 mi NE 17.3 mph - - Rain Light Rain
4:00 AM 68.0 °F 66.2 °F 94% 30.19 in 5.6 mi NE 17.3 mph - N/A Rain Light Rain
5:00 AM 69.8 °F 66.2 °F 88% 30.18 in 5.6 mi NE 16.1 mph - N/A Rain Light Rain
6:00 AM 69.8 °F 66.2 °F 88% 30.18 in 6.2 mi ENE 18.4 mph - N/A   Mostly Cloudy
7:00 AM 72 °F 69 °F 86% 30.18 in 8 mi ENE 17.3 mph - -   Partly Cloudy
7:00 AM 71.6 °F 68.0 °F 88% 30.18 in 6.2 mi ENE 17.3 mph - N/A   Overcast
7:43 AM - - N/A% - - North - - N/A   Unknown
8:00 AM 71.6 °F 68.0 °F 88% 30.21 in 6.2 mi East 13.8 mph - N/A   Overcast
9:00 AM 73.4 °F 66.2 °F 78% 30.26 in 6.2 mi ENE 13.8 mph - N/A   Overcast
10:00 AM 73.4 °F 69.8 °F 88% 30.24 in - ENE 10.4 mph - N/A   Overcast
11:00 AM 73.4 °F 68.0 °F 83% 30.23 in - ENE 16.1 mph - N/A   Overcast
12:00 PM 75.2 °F 68.0 °F 78% 30.21 in 6.2 mi ENE 12.7 mph - N/A   Overcast
1:00 PM 75 °F 72 °F 87% 30.18 in 8 mi NE 11.5 mph - - Rain Light Rain Showers
1:00 PM 75.2 °F 71.6 °F 89% 30.17 in 6.2 mi NE 11.5 mph - N/A   Mostly Cloudy
2:00 PM 75.2 °F 69.8 °F 83% 30.16 in 6.2 mi ENE 11.5 mph - N/A   Mostly Cloudy
3:00 PM 75.2 °F 69.8 °F 83% 3.01 in 6.2 mi East 11.5 mph - N/A Rain Light Rain Showers
4:00 PM 76 °F 70 °F 78% 30.14 in 8 mi East 10.4 mph - - Rain Light Rain Showers
5:00 PM 75.2 °F 69.8 °F 83% 30.14 in 6.2 mi ENE 10.4 mph - N/A   Mostly Cloudy
6:00 PM 73.4 °F 68.0 °F 83% 30.15 in 6.2 mi East 13.8 mph - N/A   Mostly Cloudy
7:00 PM 75 °F 72 °F 89% 30.17 in 8 mi ENE 11.5 mph - - Rain Heavy Rain Showers
7:00 PM 75.2 °F 71.6 °F 89% 30.16 in 6.2 mi ENE 11.5 mph - N/A Rain Light Rain Showers
8:00 PM 73.4 °F 69.8 °F 88% 30.17 in 6.2 mi ENE 12.7 mph - N/A   Mostly Cloudy
9:00 PM 73.4 °F 69.8 °F 88% 30.18 in 6.2 mi ENE 13.8 mph - N/A   Mostly Cloudy
10:00 PM 75 °F 72 °F 86% 30.18 in 8 mi ENE 15.0 mph - - Rain Light Rain Showers
10:00 PM 75.2 °F 71.6 °F 89% 3.01 in 6.2 mi ENE 15.0 mph - N/A Rain Light Rain Showers
11:00 PM 73.4 °F 69.8 °F 88% 30.18 in 6.2 mi ENE 11.5 mph - N/A   Mostly Cloudy